Погода в Тари

Австралия     31°54′28″S   152°28′11″E
темп.,
°C
ветер,
м/с
пор.,
м/с
влажн.,
%
обл.,
%
осадки,
мм/ч
давл.,
гПа
погр.,
м
18 апреля, вс
вс1801:00+13зюз2391100 0.3 1021271
04:00+12зюз249463 0.3 1021170
07:00+11зюз249414 0.0 1021155
10:00+16з247564 0.0 1021536
13:00+19ююв346022 0.2 10191350
16:00+18ююв356731 0.3 1018840
19:00+14ююз2381100 0.0 1020310
22:00+13зсз228917 0.0 102091
19 апреля, пн
пн1901:00+12зсз23945 0.0 101969
04:00+11зсз239413 0.0 101875
07:00+11зсз23922 0.0 102091
10:00+18зсз12610 0.0 1019484
13:00+21всв11480 0.0 10161023
16:00+19в24650 0.0 1016260
19:00+14с23840 0.0 101787
22:00+13ссз23900 0.0 101863
20 апреля, вт
вт2001:00+12сз23910 0.0 101774
04:00+11зсз23800 0.0 101663
07:00+11зсз23760 0.0 101781
10:00+19зсз23545 0.0 1017416
13:00+22з134343 0.0 10141071
16:00+21ю1157100 0.0 101352
19:00+16ссз1269100 0.0 101463
22:00+13зсз23711 0.0 101562
21 апреля, ср
ср2101:00+12сз34730 0.0 101377
04:00+11зсз35700 0.0 101376
07:00+12з35710 0.0 1014130
10:00+20зюз49460 0.0 10151217
13:00+20ююз58481 0.0 10141540
16:00+18ююв46600 0.0 1014657
19:00+13юз23740 0.0 1016237
22:00+11з22830 0.0 101765
22 апреля, чт
чт2201:00+10зсз23870 0.0 101670
04:00+10зсз23922 0.0 101665
07:00+10зсз23893 0.0 1016101
10:00+17зсз2356100 0.0 1015380
13:00+19юз1344100 0.0 1013716
16:00+17ююз1260100 0.0 1014173
19:00+14сз226177 0.0 101561
22:00+11зсз237712 0.0 101774